Location: Newark
(54.0500°N, 12.8333°E)
Time: 18:19:14
(UTC+00:00)

Transit 4A - Pass Details

Date: 28 January 2020
Orbit: 872 x 973 km, 66.8° (Epoch: 16 February)

Event Time Altitude Azimuth Distance (km) Brightness Sun altitude
Rises 04:47:37 0° 192° (SSW) 3,536 10.9 -19.7°
Reaches altitude 10° 04:50:16 10° 186° (S) 2,583 10.2 -19.3°
Maximum altitude 04:55:49 41° 118° (ESE) 1,266 9.1 -18.5°
Drops below altitude 10° 05:01:17 10° 50° (NE) 2,547 10.8 -17.7°
Sets 05:03:52 0° 43° (NE) 3,482 11.4 -17.3°
